When you browse on this site, cookies collect data to enhance your experience and personalize the content and advertising you see.
Visit our Privacy Policy to learn more. By continuing to use the site, you agree to this use of cookies and data.
  • In Hungary
  • List of Countries
  • For 7 days
  • Water Temperature
  • Weather Map
  • News
  • Weather Widgets
  • user-avatar
    Login

    Hourly Weather Cherdaty

    Today, 25 January, Saturday

    Time Temperature Precipitation Wind Pressure Humidity
    00:00 -3°C° 0 mm 4 mps 743 mmHg 92%
    01:00 -3°C° 0.2 mm 4 mps 743 mmHg 93%
    02:00 -3°C° 0.2 mm 4 mps 743 mmHg 94%
    03:00 -3°C° 0.2 mm 4 mps 744 mmHg 95%
    04:00 -4°C° 0.1 mm 4 mps 743 mmHg 95%
    05:00 -4°C° 0.1 mm 4 mps 743 mmHg 95%
    06:00 -4°C° 0.1 mm 4 mps 743 mmHg 95%
    07:00 -4°C° 0.3 mm 4 mps 742 mmHg 95%
    08:00 -5°C° 0.3 mm 5 mps 741 mmHg 94%
    09:00 -5°C° 0.3 mm 5 mps 741 mmHg 94%
    10:00 -5°C° 0.3 mm 6 mps 740 mmHg 92%
    11:00 -4°C° 0.3 mm 7 mps 739 mmHg 91%
    12:00 -5°C° 0.3 mm 8 mps 738 mmHg 89%
    13:00 -5°C° 0.1 mm 8 mps 738 mmHg 89%
    14:00 -4°C° 0.1 mm 7 mps 738 mmHg 90%
    15:00 -4°C° 0.1 mm 7 mps 738 mmHg 90%
    16:00 -4°C° 0.2 mm 7 mps 739 mmHg 89%
    17:00 -3°C° 0.2 mm 7 mps 739 mmHg 89%
    18:00 -3°C° 0.2 mm 7 mps 740 mmHg 88%
    19:00 -4°C° 0.1 mm 7 mps 741 mmHg 88%
    20:00 -6°C° 0.1 mm 7 mps 742 mmHg 87%
    21:00 -7°C° 0.1 mm 7 mps 743 mmHg 87%
    22:00 -8°C° 0 mm 6 mps 744 mmHg 87%
    23:00 -9°C° 0 mm 6 mps 745 mmHg 87%

    Tomorrow, 26 January, Sunday

    Time Temperature Precipitation Wind Pressure Humidity
    00:00 -10°C° 0 mm 5 mps 746 mmHg 88%
    01:00 -11°C° 0 mm 5 mps 747 mmHg 88%
    02:00 -12°C° 0 mm 4 mps 747 mmHg 89%
    03:00 -14°C° 0 mm 4 mps 748 mmHg 90%
    04:00 -14°C° 0 mm 4 mps 749 mmHg 90%
    05:00 -14°C° 0 mm 4 mps 749 mmHg 91%
    06:00 -15°C° 0 mm 4 mps 749 mmHg 91%
    07:00 -14°C° 0 mm 4 mps 750 mmHg 91%
    08:00 -14°C° 0 mm 4 mps 750 mmHg 91%
    09:00 -14°C° 0 mm 4 mps 751 mmHg 91%
    10:00 -14°C° 0 mm 4 mps 751 mmHg 90%
    11:00 -13°C° 0 mm 5 mps 751 mmHg 89%
    12:00 -13°C° 0 mm 5 mps 752 mmHg 87%
    13:00 -13°C° 0 mm 5 mps 752 mmHg 87%
    14:00 -14°C° 0 mm 5 mps 752 mmHg 86%
    15:00 -14°C° 0 mm 4 mps 752 mmHg 85%
    16:00 -14°C° 0 mm 4 mps 753 mmHg 85%
    17:00 -15°C° 0 mm 4 mps 753 mmHg 86%
    18:00 -16°C° 0 mm 4 mps 753 mmHg 87%
    19:00 -15°C° 0 mm 4 mps 753 mmHg 86%
    20:00 -15°C° 0 mm 5 mps 753 mmHg 86%
    21:00 -15°C° 0 mm 5 mps 753 mmHg 85%
    22:00 -15°C° 0 mm 5 mps 753 mmHg 86%
    23:00 -15°C° 0 mm 4 mps 753 mmHg 86%

    Day after tomorrow, 27 January, Monday

    Time Temperature Precipitation Wind Pressure Humidity
    00:00 -15°C° 0 mm 4 mps 753 mmHg 87%
    01:00 -15°C° 0 mm 4 mps 753 mmHg 87%
    02:00 -15°C° 0 mm 4 mps 753 mmHg 86%
    03:00 -15°C° 0 mm 4 mps 753 mmHg 86%
    04:00 -15°C° 0 mm 4 mps 753 mmHg 86%
    05:00 -15°C° 0 mm 4 mps 752 mmHg 86%
    06:00 -15°C° 0 mm 4 mps 752 mmHg 86%
    07:00 -15°C° 0 mm 4 mps 752 mmHg 84%
    08:00 -14°C° 0 mm 5 mps 751 mmHg 83%
    09:00 -14°C° 0 mm 5 mps 751 mmHg 82%
    10:00 -13°C° 0 mm 5 mps 751 mmHg 79%
    11:00 -12°C° 0 mm 5 mps 750 mmHg 77%
    12:00 -11°C° 0 mm 6 mps 750 mmHg 74%
    13:00 -10°C° 0 mm 6 mps 749 mmHg 75%
    14:00 -8°C° 0 mm 5 mps 749 mmHg 76%
    15:00 -8°C° 0 mm 5 mps 749 mmHg 77%
    16:00 -8°C° 0 mm 5 mps 748 mmHg 80%
    17:00 -8°C° 0 mm 5 mps 748 mmHg 84%
    18:00 -9°C° 0 mm 6 mps 747 mmHg 87%
    19:00 -8°C° 0 mm 6 mps 747 mmHg 87%
    20:00 -8°C° 0 mm 6 mps 747 mmHg 88%
    21:00 -8°C° 0 mm 6 mps 747 mmHg 88%
    22:00 -8°C° 0.1 mm 6 mps 746 mmHg 88%
    23:00 -8°C° 0.1 mm 6 mps 746 mmHg 87%

    28 January, Tuesday

    Time Temperature Precipitation Wind Pressure Humidity
    00:00 -8°C° 0.1 mm 6 mps 746 mmHg 87%
    01:00 -8°C° 0 mm 6 mps 745 mmHg 87%
    02:00 -6°C° 0 mm 6 mps 745 mmHg 86%
    03:00 -6°C° 0 mm 6 mps 745 mmHg 86%
    04:00 -6°C° 0.1 mm 6 mps 745 mmHg 88%
    05:00 -6°C° 0.1 mm 6 mps 745 mmHg 89%
    06:00 -6°C° 0.1 mm 6 mps 745 mmHg 91%
    07:00 -6°C° 0.1 mm 5 mps 745 mmHg 91%
    08:00 -6°C° 0.1 mm 5 mps 746 mmHg 90%
    09:00 -6°C° 0.1 mm 5 mps 746 mmHg 90%
    10:00 -7°C° 0.1 mm 5 mps 747 mmHg 88%
    11:00 -7°C° 0.1 mm 5 mps 747 mmHg 87%
    12:00 -7°C° 0.1 mm 5 mps 748 mmHg 85%
    13:00 -8°C° 0 mm 5 mps 748 mmHg 86%
    14:00 -8°C° 0 mm 5 mps 748 mmHg 86%
    15:00 -8°C° 0 mm 4 mps 748 mmHg 87%
    16:00 -9°C° 0 mm 4 mps 749 mmHg 87%
    17:00 -11°C° 0 mm 5 mps 749 mmHg 87%
    18:00 -12°C° 0 mm 5 mps 749 mmHg 88%
    19:00 -12°C° 0 mm 5 mps 750 mmHg 87%
    20:00 -13°C° 0 mm 5 mps 750 mmHg 86%
    21:00 -14°C° 0 mm 5 mps 751 mmHg 86%
    22:00 -15°C° 0 mm 4 mps 751 mmHg 87%
    23:00 -16°C° 0 mm 4 mps 751 mmHg 89%

    29 January, Wednesday

    Time Temperature Precipitation Wind Pressure Humidity
    00:00 -17°C° 0 mm 3 mps 751 mmHg 91%
    01:00 -17°C° 0 mm 3 mps 751 mmHg 92%
    02:00 -18°C° 0 mm 3 mps 751 mmHg 93%
    03:00 -17°C° 0 mm 2 mps 751 mmHg 94%
    04:00 -17°C° 0 mm 2 mps 751 mmHg 94%
    05:00 -17°C° 0 mm 2 mps 751 mmHg 95%
    06:00 -15°C° 0 mm 1 mps 751 mmHg 96%
    07:00 -15°C° 0 mm 1 mps 751 mmHg 96%
    08:00 -16°C° 0 mm 1 mps 752 mmHg 96%
    09:00 -16°C° 0 mm 1 mps 752 mmHg 96%
    10:00 -15°C° 0 mm 1 mps 752 mmHg 95%
    11:00 -14°C° 0 mm 1 mps 752 mmHg 93%
    12:00 -15°C° 0 mm 2 mps 753 mmHg 92%
    13:00 -15°C° 0 mm 2 mps 754 mmHg 91%
    14:00 -16°C° 0 mm 2 mps 754 mmHg 91%
    15:00 -17°C° 0 mm 3 mps 755 mmHg 91%
    16:00 -18°C° 0 mm 3 mps 756 mmHg 91%
    17:00 -20°C° 0 mm 4 mps 757 mmHg 92%
    18:00 -22°C° 0 mm 4 mps 758 mmHg 92%
    19:00 -22°C° 0.1 mm 4 mps 759 mmHg 93%
    20:00 -22°C° 0.1 mm 4 mps 760 mmHg 93%
    21:00 -22°C° 0.1 mm 4 mps 761 mmHg 93%
    22:00 -23°C° 0.1 mm 4 mps 761 mmHg 93%
    23:00 -24°C° 0.1 mm 4 mps 762 mmHg 94%

    30 January, Thursday

    Time Temperature Precipitation Wind Pressure Humidity
    00:00 -24°C° 0.1 mm 4 mps 762 mmHg 94%
    01:00 -25°C° 0.1 mm 4 mps 762 mmHg 94%
    02:00 -25°C° 0.1 mm 4 mps 763 mmHg 95%
    03:00 -26°C° 0.1 mm 4 mps 763 mmHg 95%
    04:00 -26°C° 0.1 mm 4 mps 764 mmHg 95%
    05:00 -27°C° 0.1 mm 4 mps 764 mmHg 95%
    06:00 -27°C° 0.1 mm 4 mps 764 mmHg 95%
    07:00 -29°C° 0 mm 4 mps 764 mmHg 95%
    08:00 -29°C° 0 mm 4 mps 765 mmHg 94%
    09:00 -30°C° 0 mm 4 mps 765 mmHg 94%
    10:00 -29°C° 0 mm 3 mps 765 mmHg 94%
    11:00 -27°C° 0 mm 3 mps 765 mmHg 93%
    12:00 -27°C° 0 mm 3 mps 766 mmHg 93%
    13:00 -27°C° 0 mm 3 mps 766 mmHg 93%
    14:00 -27°C° 0 mm 3 mps 766 mmHg 93%
    15:00 -26°C° 0 mm 3 mps 766 mmHg 93%
    16:00 -27°C° 0 mm 3 mps 767 mmHg 94%
    17:00 -26°C° 0 mm 2 mps 767 mmHg 95%
    18:00 -27°C° 0 mm 2 mps 767 mmHg 97%
    19:00 -27°C° 0 mm 2 mps 768 mmHg 97%
    20:00 -27°C° 0 mm 2 mps 768 mmHg 96%
    21:00 -27°C° 0 mm 2 mps 768 mmHg 96%
    22:00 -27°C° 0 mm 2 mps 768 mmHg 96%
    23:00 -28°C° 0 mm 2 mps 769 mmHg 97%
    Show more